Home   Weather   Montreal   Past weeks

Flag for Canada Past Weather in Montreal, Quebec, Canada — Yesterday and Last 2 Weeks

Now
63 °F

Light rain. Mostly cloudy.


Feels Like: 63 °F
Forecast: 62 / 77 °F
Wind: 9 mph from South

Location: Montreal - Pierre Elliot Trudeau International Aiport

Current Time: Jun 23, 2017 at 4:29:05 am

Latest Report: Jun 23, 2017 at 4:00 am


Visibility: 15 mi

Pressure: 29.71 "Hg

Humidity: 94%

Dew Point: 61 °F

Location of MontrealLocation

Past Weather in Montreal — Graph

°F

Montreal Temperature Yesterday

Maximum temperature yesterday: 75 °F (at 5:00 pm)
Minimum temperature yesterday: 59 °F (at 4:00 am)
Average temperature yesterday: 67 °F

High & Low Weather Summary for the Past Weeks

 TemperatureHumidityPressure
High90 °F (Jun 18, 5:00 pm)100% (Jun 20, 8:00 am)30.15 "Hg (Jun 20, 8:00 am)
Low50 °F (Jun 10, 5:00 am)27% (Jun 15, 4:00 pm)29.54 "Hg (Jun 18, 6:00 pm)
Average70 °F66%29.82 "Hg
* Reported Jun 8 3:00 am — Jun 23 3:00 am, Montreal. Weather by CustomWeather, © 2017

Note: Actual official high and low records may vary slightly from our data, if they occured in-between our weather recording intervals... More about our weather records

Advertising

Montreal Weather History for the Previous 24 Hours

Scroll right to see more
 ConditionsComfort  
Time TempWeatherWind HumidityBarometerVisibility
3:00 am
Fri, Jun 23
63 °FLight rain. Mostly cloudy.6 mph94%29.75 "Hg15 mi
2:00 am63 °FSprinkles. Mostly cloudy.5 mph88%29.75 "Hg15 mi
1:00 am68 °FOvercast.2 mph64%29.78 "Hg15 mi
12:00 am68 °FMostly cloudy.2 mph69%29.78 "Hg15 mi
11:00 pm
Thu, Jun 22
66 °FPassing clouds.2 mph73%29.81 "Hg15 mi
10:00 pm68 °FPartly cloudy.6 mph64%29.81 "Hg15 mi
9:00 pm70 °FPartly cloudy.7 mph60%29.82 "Hg15 mi
8:00 pm72 °FBroken clouds.8 mph61%29.83 "Hg30 mi
7:00 pm73 °FBroken clouds.10 mph47%29.84 "Hg30 mi
6:00 pm73 °FPartly sunny.14 mph44%29.85 "Hg30 mi
5:00 pm75 °FBroken clouds.13 mph50%29.84 "Hg30 mi
4:00 pm73 °FOvercast.13 mph57%29.85 "Hg30 mi
3:00 pm72 °FMostly cloudy.12 mph61%29.87 "Hg30 mi
2:00 pm73 °FMostly cloudy.14 mph50%29.88 "Hg30 mi
1:00 pm73 °FBroken clouds.18 mph57%29.90 "Hg30 mi
12:00 pm73 °FScattered clouds.15 mph61%29.91 "Hg30 mi
11:00 am72 °FScattered clouds.18 mph61%29.91 "Hg30 mi
10:00 am70 °FPassing clouds.14 mph64%29.92 "Hg30 mi
9:00 am66 °FPassing clouds.13 mph73%29.92 "Hg30 mi
8:00 am64 °FPassing clouds.7 mph78%29.93 "Hg30 mi
7:00 am63 °FPassing clouds.7 mph83%29.92 "Hg30 mi
6:00 am59 °FPartly sunny.3 mph88%29.91 "Hg30 mi
5:00 am59 °FPassing clouds.6 mph94%29.91 "Hg15 mi
4:00 am59 °FClear.7 mph94%29.90 "Hg15 mi
Weather by CustomWeather, © 2017

See weather overviewHow to use our weather pages